SM2GSR-2 Weather Reports


time (UTC)temp
F
wind
direction
speed
knots
gust
knots
rain 1hr
in
rain 24hr
in
rain mn
in
humidity
%
barometer
mb
20260502205005 35 292 1.7 8.7 0.00 0.00 0.00 64 1000.6
20260502204504 35 296 3.5 8.7 0.00 0.00 0.00 63 1000.6
20260502203504 35 286 1.7 5.2 0.00 0.00 0.00 60 1000.6
20260502203004 36 298 2.6 4.3 0.00 0.00 0.00 60 1000.6
20260502202503 36 298 1.7 2.6 0.00 0.00 0.00 60 1000.6
20260502201504 36 279 5.2 8.7 0.00 0.00 0.00 60 1000.6
20260502201004 36 285 2.6 6.1 0.00 0.00 0.00 59 1000.6
20260502195504 37 280 3.5 7.8 0.00 0.00 0.00 58 1000.6
20260502195004 37 281 0.0 0.0 0.00 0.00 0.00 57 1000.6
20260502194504 37 223 1.7 4.3 0.00 0.00 0.00 55 1000.5
20260502194003 38 313 2.6 6.1 0.00 0.00 0.00 54 1000.6
20260502193504 38 270 0.0 6.1 0.00 0.00 0.00 53 1000.6
20260502193004 38 294 0.0 4.3 0.00 0.00 0.00 53 1000.5
20260502192504 39 279 2.6 7.8 0.00 0.00 0.00 52 1000.5
20260502192004 39 283 6.1 11.3 0.00 0.00 0.00 52 1000.4
20260502191503 39 289 4.3 7.8 0.00 0.00 0.00 51 1000.4
20260502191003 39 296 4.3 10.4 0.00 0.00 0.00 51 1000.4
20260502190504 39 298 3.5 10.4 0.00 0.00 0.00 51 1000.4
20260502190004 40 282 5.2 10.4 0.00 0.00 0.00 50 1000.3
20260502185504 40 222 5.2 10.4 0.00 0.00 0.00 50 1000.3
20260502185004 40 281 5.2 11.3 0.00 0.00 0.00 51 1000.3
20260502184504 40 243 2.6 8.7 0.00 0.00 0.00 52 1000.2
20260502184004 40 295 4.3 10.4 0.00 0.00 0.00 52 1000.0
20260502183504 40 241 1.7 8.7 0.00 0.00 0.00 52 1000.1
20260502182504 41 298 3.5 7.0 0.00 0.00 0.00 50 1000.2
20260502182004 41 229 2.6 7.8 0.00 0.00 0.00 50 1000.2
20260502181503 41 255 5.2 7.0 0.00 0.00 0.00 49 1000.2
20260502181004 41 248 0.9 5.2 0.00 0.00 0.00 48 1000.2
20260502170504 44 285 7.0 13.0 0.00 0.00 0.00 46 999.9
20260502164004 45 281 7.0 12.2 0.00 0.00 0.00 47 1000.0
20260502163504 45 271 0.9 8.7 0.00 0.00 0.00 48 999.9
20260502163004 45 280 6.1 12.2 0.00 0.00 0.00 47 999.9
20260502162504 45 253 4.3 12.2 0.00 0.00 0.00 46 1000.0
20260502162004 45 299 7.8 12.2 0.00 0.00 0.00 45 999.9
20260502160503 46 338 7.0 13.0 0.00 0.00 0.00 44 999.7
20260502152004 47 303 7.8 14.8 0.00 0.00 0.00 49 999.6
20260502151504 48 304 5.2 13.0 0.00 0.00 0.00 48 999.6
20260502151004 48 302 6.1 13.0 0.00 0.00 0.00 48 999.5
20260502150504 49 269 4.3 13.0 0.00 0.00 0.00 47 999.5
20260502123004 51 304 2.6 13.9 0.00 0.00 0.00 54 999.2
20260502122504 51 270 2.6 10.4 0.00 0.00 0.00 54 999.1
20260502121504 51 261 7.8 12.2 0.00 0.00 0.00 53 999.1
20260502120504 51 277 8.7 17.4 0.00 0.00 0.00 53 999.0
20260502115003 51 263 7.8 17.4 0.00 0.00 0.00 53 999.2
20260502114504 52 278 8.7 15.6 0.00 0.00 0.00 53 999.1
20260502114004 52 295 8.7 15.6 0.00 0.00 0.00 54 999.1
20260502113504 52 297 7.8 17.4 0.00 0.00 0.00 57 999.2
20260502113004 52 277 11.3 20.9 0.00 0.00 0.00 55 999.2
20260502112503 52 237 4.3 13.0 0.00 0.00 0.00 58 999.2
20260502112004 52 246 2.6 15.6 0.00 0.00 0.00 59 999.2
20260502111504 51 260 6.1 15.6 0.00 0.00 0.00 59 999.4
20260502111004 51 264 6.1 17.4 0.00 0.00 0.00 58 999.2
20260502110503 52 300 10.4 17.4 0.00 0.00 0.00 57 999.2
20260502110004 52 286 7.8 15.6 0.00 0.00 0.00 56 999.1
20260502105504 52 276 6.1 22.6 0.00 0.00 0.00 59 999.1
20260502105003 51 290 4.3 18.2 0.00 0.00 0.00 60 999.1
20260502104504 51 263 3.5 12.2 0.00 0.00 0.00 60 999.1
20260502104004 51 279 6.1 13.9 0.00 0.00 0.00 59 999.0
20260502103503 51 279 4.3 11.3 0.00 0.00 0.00 60 999.1
20260502103004 51 265 0.9 8.7 0.00 0.00 0.00 60 999.0
20260502102503 51 244 3.5 11.3 0.00 0.00 0.00 58 999.0
20260502102003 51 256 4.3 12.2 0.00 0.00 0.00 59 999.0
20260502101504 51 241 3.5 15.6 0.00 0.00 0.00 59 998.9
20260502101003 51 263 1.7 5.2 0.00 0.00 0.00 59 998.9
20260502100503 51 294 0.9 13.0 0.00 0.00 0.00 59 998.9
20260502091504 50 288 7.0 14.8 0.00 0.00 0.00 61 999.0
20260502090505 50 306 9.6 14.8 0.00 0.00 0.00 61 998.9
20260502071004 52 256 3.5 15.6 0.00 0.00 0.00 60 998.6
20260502065504 52 293 1.7 13.0 0.00 0.00 0.00 61 998.6
20260502065004 51 283 3.5 14.8 0.00 0.00 0.00 60 998.6
20260502064004 51 238 8.7 17.4 0.00 0.00 0.00 60 998.6
20260502062504 51 253 1.7 12.2 0.00 0.00 0.00 61 998.6
20260502062005 51 263 5.2 12.2 0.00 0.00 0.00 61 998.6
20260502061504 51 240 5.2 12.2 0.00 0.00 0.00 61 998.6
20260502061004 51 267 2.6 13.0 0.00 0.00 0.00 61 998.5
20260502060504 51 253 3.5 14.8 0.00 0.00 0.00 61 998.5
20260502060004 50 264 3.5 18.2 0.00 0.00 0.00 61 998.6
20260502055504 50 246 4.3 14.8 0.00 0.00 0.00 62 998.7
20260502055003 50 232 4.3 13.9 0.00 0.00 0.00 62 998.7
20260502054504 50 299 3.5 13.0 0.00 0.00 0.00 62 998.9
20260502053504 50 261 2.6 15.6 0.00 0.00 0.00 62 999.0
20260502052503 50 283 0.9 6.1 0.00 0.00 0.00 63 999.1
20260502052004 49 293 2.6 10.4 0.00 0.00 0.00 63 999.1
20260502051504 49 288 2.6 10.4 0.00 0.00 0.00 63 999.2
20260502051004 49 251 5.2 13.9 0.00 0.00 0.00 64 999.3
20260502050504 49 297 7.8 11.3 0.00 0.00 0.00 64 999.5
20260502050004 49 257 6.1 17.4 0.00 0.00 0.00 64 999.4
20260502045503 49 256 4.3 11.3 0.00 0.00 0.00 64 999.5
20260502044504 49 214 2.6 8.7 0.00 0.00 0.00 63 999.4
20260502044004 48 236 0.9 7.8 0.00 0.00 0.00 64 999.4
20260502043504 48 208 1.7 6.1 0.00 0.00 0.00 64 999.4
20260502042504 48 209 0.0 0.0 0.00 0.00 0.00 63 999.6
20260502042004 48 210 0.0 0.0 0.00 0.00 0.00 63 999.8
20260502041504 48 211 0.0 0.0 0.00 0.00 0.00 63 999.8
20260502041004 48 219 1.7 5.2 0.00 0.00 0.00 63 999.9
20260502040504 47 221 0.0 0.0 0.00 0.00 0.00 64 999.9
20260502040004 47 220 0.0 6.1 0.00 0.00 0.00 63 999.9
20260502035503 47 217 0.0 0.0 0.00 0.00 0.00 63 999.9
20260502035004 47 217 0.0 5.2 0.00 0.00 0.00 63 999.9
20260502034505 47 271 0.0 6.1 0.00 0.00 0.00 63 1000.0
20260502034005 47 225 0.9 6.1 0.00 0.00 0.00 62 1000.0
20260502033504 47 240 0.0 7.0 0.00 0.00 0.00 62 1000.1
20260502032504 47 202 0.0 5.2 0.00 0.00 0.00 62 1000.1
20260502032004 47 202 0.0 0.0 0.00 0.00 0.00 61 1000.3
20260502031504 47 202 0.9 2.6 0.00 0.00 0.00 61 1000.3
20260502031004 47 201 0.0 2.6 0.00 0.00 0.00 61 1000.4
20260502030504 47 198 0.0 4.3 0.00 0.00 0.00 61 1000.4
20260502030004 48 219 0.0 0.9 0.00 0.00 0.00 61 1000.4
20260502025503 48 219 0.9 4.3 0.00 0.00 0.00 61 1000.4
20260502025004 48 224 0.9 2.6 0.00 0.00 0.00 60 1000.6
20260502023504 48 245 0.9 5.2 0.00 0.00 0.00 60 1000.8
20260502023004 48 244 0.0 4.3 0.00 0.00 0.00 60 1000.9
20260502022504 48 245 0.0 0.0 0.00 0.00 0.00 60 1001.0
20260502022004 48 272 2.6 7.0 0.00 0.00 0.00 60 1001.0
20260502021503 47 257 1.7 2.6 0.00 0.00 0.00 60 1001.1
20260502021004 47 235 0.9 5.2 0.00 0.00 0.00 60 1001.3
20260502020504 47 242 0.0 2.6 0.00 0.00 0.00 60 1001.4
20260502020004 47 264 0.9 4.3 0.00 0.00 0.00 60 1001.5
20260502015504 47 250 0.9 2.6 0.00 0.00 0.00 60 1001.5
20260502015004 47 232 0.0 1.7 0.00 0.00 0.00 60 1001.6
20260502014503 47 231 0.0 0.0 0.00 0.00 0.00 59 1001.6
20260502014004 48 229 0.0 0.0 0.00 0.00 0.00 59 1001.6
20260502013504 48 229 0.0 0.0 0.00 0.00 0.00 59 1001.7
20260502013004 48 229 0.0 2.6 0.00 0.00 0.00 59 1001.6
20260502012504 48 237 0.0 4.3 0.00 0.00 0.00 58 1001.5
20260502012004 48 248 0.0 8.7 0.00 0.00 0.00 58 1001.6
20260502011004 48 209 0.9 5.2 0.00 0.00 0.00 58 1001.7
20260502010003 48 205 0.0 4.3 0.00 0.00 0.00 58 1001.9
20260502005503 48 215 0.0 2.6 0.00 0.00 0.00 58 1002.0
20260502005003 48 222 0.9 6.1 0.00 0.00 0.00 58 1002.0
20260502004503 47 239 1.7 5.2 0.00 0.00 0.00 58 1002.1
20260502004002 47 207 0.9 4.3 0.00 0.00 0.00 58 1002.1
20260502003504 47 212 1.7 7.0 0.00 0.00 0.00 59 1002.2
20260502003003 47 195 0.0 0.0 0.00 0.00 0.00 58 1002.3
20260502002504 47 195 0.9 2.6 0.00 0.00 0.00 58 1002.3
20260502002002 47 247 0.0 0.0 0.00 0.00 0.00 59 1002.4
20260502001503 47 247 1.7 5.2 0.00 0.00 0.00 58 1002.5
20260502001003 47 214 0.0 4.3 0.00 0.00 0.00 58 1002.6
20260502000504 47 249 0.0 4.3 0.00 0.00 0.00 59 1002.7
20260501235504 47 224 0.9 5.2 0.00 0.00 0.00 59 1002.8
20260501234506 47 224 0.0 0.0 0.00 0.00 0.00 61 1003.0
20260501233504 47 223 0.0 0.0 0.00 0.00 0.00 59 1003.1
20260501233006 47 223 0.9 4.3 0.00 0.00 0.00 59 1003.2
20260501232504 47 223 0.0 0.0 0.00 0.00 0.00 58 1003.2
20260501232003 47 221 0.0 2.6 0.00 0.00 0.00 58 1003.2
20260501231503 47 221 0.9 4.3 0.00 0.00 0.00 58 1003.2
20260501231003 47 221 0.0 1.7 0.00 0.00 0.00 59 1003.3
20260501230003 47 221 0.0 0.0 0.00 0.00 0.00 60 1003.3
20260501225503 47 221 0.0 0.0 0.00 0.00 0.00 61 1003.4
20260501225003 46 268 0.9 7.0 0.00 0.00 0.00 62 1003.5
20260501224503 45 240 1.7 7.0 0.00 0.00 0.00 64 1003.6
20260501224003 45 240 0.0 7.0 0.00 0.00 0.00 66 1003.6
20260501223503 44 227 0.0 0.0 0.00 0.00 0.00 69 1003.7
20260501223003 43 228 0.9 5.2 0.00 0.00 0.00 72 1003.9
20260501222503 42 219 0.0 4.3 0.00 0.00 0.00 76 1003.8
20260501222003 40 219 0.9 2.6 0.00 0.00 0.00 80 1003.9
20260501221503 40 207 0.0 2.6 0.00 0.00 0.00 83 1004.0
20260501221003 39 205 0.0 2.6 0.00 0.00 0.00 83 1004.1
20260501220503 39 205 0.0 0.0 0.00 0.00 0.00 83 1004.2
20260501220003 39 205 0.0 0.0 0.00 0.00 0.00 83 1004.2
20260501215503 39 205 0.0 0.0 0.00 0.00 0.00 83 1004.3
20260501215002 39 205 0.0 0.0 0.00 0.00 0.00 83 1004.4
20260501214503 39 205 0.0 0.0 0.00 0.00 0.00 82 1004.4
20260501214003 39 205 0.0 0.0 0.00 0.00 0.00 83 1004.4
20260501213502 39 205 0.0 0.0 0.00 0.00 0.00 83 1004.3
20260501213003 39 205 0.0 0.0 0.00 0.00 0.00 83 1004.6
20260501212503 39 205 0.0 0.0 0.00 0.00 0.00 83 1004.6
20260501212003 39 205 0.0 0.0 0.00 0.00 0.00 83 1004.7
20260501211503 39 205 0.0 0.0 0.00 0.00 0.00 83 1004.8
20260501211002 39 205 0.0 0.0 0.00 0.00 0.00 83 1004.8
20260501210503 39 205 0.0 0.0 0.00 0.00 0.00 83 1004.9
20260501210003 39 205 0.0 0.0 0.00 0.00 0.00 83 1004.9